Regional Weather Roundup
Issued by NWS

Home | Current Version | Previous Version | Graphics & Text | Print | Product List | Glossary On
Versions: 1 2 3 4 5 6 7 8 9 10 11 12 13 14 15 16 17 18 19 20 21 22 23 24 25 26 27 28 29 30 31 32 33 34 35 36 37 38 39 40 41 42 43 44 45 46 47 48 49 50
000
ASUS43 KLMK 020902
RWRKY
KENTUCKY REGIONAL WEATHER ROUNDUP
NATIONAL WEATHER SERVICE LOUISVILLE KY
500 AM EDT SAT AUG 02 2014

NOTE "FAIR" INDICATES FEW OR NO CLOUDS BELOW 12,000 FEET
WITH NO SIGNIFICANT WEATHER AND/OR OBSTRUCTIONS TO VISIBILITY.

KYZ001>023-026-027-061>063-070>075-021000-
WESTERN AND SOUTH CENTRAL KENTUCKY

CITY           SKY/WX    TMP DP  RH WIND       PRES   REMARKS
PADUCAH        CLOUDY    69  65  86 CALM      30.05R
HENDERSON      MOCLDY    66  61  82 NW3       30.06R
OWENSBORO      CLOUDY    67  66  96 SW3       30.06R
HOPKINSVILLE   MOCLDY    65  62  91 N5        30.04S
BOWLING GREEN  MOCLDY    64  58  80 CALM      30.05S
GLASGOW        MOCLDY    62  60  94 CALM      30.05S
$$

KYZ024-025-028>034-038-045-046-053-021000-
NORTH CENTRAL KENTUCKY

CITY           SKY/WX    TMP DP  RH WIND       PRES   REMARKS
LOUISVILLE/SDF MOCLDY    69  63  81 CALM      30.05R
LOUISVILLE/LOU PTCLDY    67  63  87 CALM      30.06R
FORT KNOX      PTCLDY    62  61  98 CALM      30.04S FOG
$$

KYZ035>037-039>044-047>052-055>060-089>105-021000-
NORTHEAST KENTUCKY

CITY           SKY/WX    TMP DP  RH WIND       PRES   REMARKS
LEXINGTON      PTCLDY    63  60  90 N5        30.07R
COVINGTON      CLOUDY    68  60  75 N10       30.07R THUNDER
FRANKFORT      PTCLDY    62  61  96 CALM      30.05S
$$

KYZ054-064>069-076>088-106>120-021000-
SOUTHEAST KENTUCKY

CITY           SKY/WX    TMP DP  RH WIND       PRES   REMARKS
JACKSON        PTCLDY    66  62  87 CALM      30.07S
LONDON         MOCLDY    67  63  87 CALM      30.08S
SOMERSET       CLEAR     64  64 100 CALM      30.08S
MIDDLESBORO    MOCLDY    67  62  82 SW3       30.10S
MONTICELLO     MOSUNNY   62  62 100 CALM      30.08S FOG
$$



USA.gov is the U.S. government's official web portal to all federal, state and local government web resources and services.